{"data":{"norad_id":67659,"epoch":"2026-05-25T00:59:06.215424Z","epoch_age_seconds":64823,"freshness":"FRESH","line1":"1 67659U 26022M   26145.04104416  .00022409  00000+0  69368-3 0  9994","line2":"2 67659  97.2842 178.2957 0000532 117.6259 242.5037 15.33477844 17273","mean_motion":15.33477844,"eccentricity":5.32e-5,"inclination_deg":97.2842,"raan_deg":178.2957,"arg_perigee_deg":117.6259,"mean_anomaly_deg":242.5037,"bstar":0.00069368,"rev_number":1727,"period_min":93.904193375486,"perigee_km":465.08137699937,"apogee_km":465.80953417264,"semimajor_km":6843.582455586,"source":"CELESTRAK","updated_at":"2026-05-25T13:38:21.659042Z"}}